{"data":{"norad_id":63764,"intl_designator":"2025-089P","name":"STARLINK-33760","alt_names":[],"object_type":"PAYLOAD","status":"ACTIVE","operator":null,"country":"US","launch_date":"2025-04-29","launch_site_code":"AFETR","launch_vehicle":null,"mission":null,"orbit_class":"UNKNOWN","rcs_meters":null,"size_class":null,"mass_kg":null,"dimensions":null,"purposes":["comms"],"wikipedia_slug":null,"has_3d_model":false,"image_url":null,"decayed_at":null,"tle_current":{"epoch":"2026-09-20T09:27:23.494752Z","epoch_age_seconds":159015,"freshness":"FRESH","line1":"1 63764U 25089P   26263.39402193  .00015287  00000+0  56358-3 0  9992","line2":"2 63764  43.0023  25.7703 0000282 223.9154 136.1675 15.27596971 78738","mean_motion":15.27596971,"eccentricity":2.82e-5,"inclination_deg":43.0023,"raan_deg":25.7703,"arg_perigee_deg":223.9154,"mean_anomaly_deg":136.1675,"bstar":0.00056358,"rev_number":7873,"period_min":94.265701447244,"perigee_km":482.80479521596,"apogee_km":483.19176324571,"semimajor_km":6861.1352792308,"source":"CELESTRAK","updated_at":"2026-09-21T09:00:35.095356Z"}}}